This is the latest recevied weather packets stored in our database for station/object VE6EN. If no packets are shown the sender has not sent any weather packets the latest 10 day(s).
| Time | Temp. | Humidity | Pressure | Rain* | Wind** | Luminosity | Snow |
|---|---|---|---|---|---|---|---|
| 1788042604 | 20.56° C | 37% | 1007 hPa | 0 mm | - | - | - |
| 1788042004 | 20.56° C | 40% | 1007.1 hPa | 0 mm | - | - | - |
| 1788041404 | 20.56° C | 42% | 1007.2 hPa | 0 mm | - | - | - |
| 1788040804 | 20.56° C | 42% | 1007.3 hPa | 0 mm | - | - | - |
| 1788040206 | 20.56° C | 44% | 1007.5 hPa | 0 mm | - | - | - |
| 1788039604 | 20° C | 44% | 1007.5 hPa | 0 mm | - | - | - |
| 1788039006 | 20.56° C | 39% | 1007.6 hPa | 0 mm | - | - | - |
| 1788038403 | 20.56° C | 41% | 1007.5 hPa | 0 mm | - | - | - |
| 1788037804 | 20.56° C | 40% | 1007.7 hPa | 0 mm | - | - | - |
| 1788037204 | 20.56° C | 42% | 1007.8 hPa | 0 mm | - | - | - |
| 1788036610 | 20.56° C | 38% | 1007.8 hPa | 0 mm | - | - | - |
| 1788036011 | 20.56° C | 39% | 1007.9 hPa | 0 mm | - | - | - |
| 1788035408 | 20.56° C | 41% | 1008 hPa | 0 mm | - | - | - |
| 1788034803 | 20° C | 39% | 1008 hPa | 0 mm | - | - | - |
| 1788034203 | 20° C | 46% | 1008.1 hPa | 0 mm | - | - | - |
| 1788033604 | 20° C | 49% | 1008.1 hPa | 0 mm | - | - | - |
| 1788033009 | 20° C | 50% | 1008.3 hPa | 0 mm | - | - | - |
| 1788032403 | 19.44° C | 53% | 1008.3 hPa | 0 mm | - | - | - |
| 1788031802 | 19.44° C | 54% | 1008.4 hPa | 0 mm | - | - | - |
| 1788031203 | 18.89° C | 53% | 1008.5 hPa | 0 mm | - | - | - |
| 1788030603 | 18.89° C | 51% | 1008.5 hPa | 0 mm | - | - | - |
| 1788030004 | 18.89° C | 54% | 1008.6 hPa | 0 mm | - | - | - |
| 1788029400 | 18.89° C | 54% | 1008.7 hPa | 0 mm | - | - | - |
| 1788028800 | 18.89° C | 53% | 1008.9 hPa | 0 mm | - | - | - |
| 1788028203 | 18.33° C | 56% | 1008.9 hPa | 0 mm | - | - | - |
* Rain latest hour (hover to see other rain measurements)
** Current wind speed in m/s (hover to see current wind gust speed)